This is the latest recevied weather packets stored in our database for station/object KC3ULW-13. If no packets are shown the sender has not sent any weather packets the latest 10 day(s).
| Time | Temp. | Humidity | Pressure | Rain* | Wind** | Luminosity | Snow |
|---|---|---|---|---|---|---|---|
| 1777685674 | 5.56° C | 83% | 1017.1 hPa | 0 mm | - | 0 W/m² | - |
| 1777685371 | 5.56° C | 83% | 1017.4 hPa | 0 mm | - | 0 W/m² | - |
| 1777685068 | 5.56° C | 83% | 1017.3 hPa | 0 mm | - | 0 W/m² | - |
| 1777684766 | 5.56° C | 83% | 1017.1 hPa | 0 mm | - | 0 W/m² | - |
| 1777684461 | 6.11° C | 83% | 1017.3 hPa | 0 mm | - | 0 W/m² | - |
| 1777684159 | 6.11° C | 83% | 1017.2 hPa | 0 mm | - | 0 W/m² | - |
| 1777683855 | 6.11° C | 83% | 1017 hPa | 0 mm | - | 0 W/m² | - |
| 1777683552 | 6.11° C | 83% | 1017.1 hPa | 0 mm | - | 0 W/m² | - |
| 1777683250 | 6.11° C | 84% | 1016.9 hPa | 0 mm | - | 0 W/m² | - |
| 1777682948 | 6.11° C | 84% | 1016.7 hPa | 0 mm | - | 0 W/m² | - |
| 1777682643 | 6.67° C | 85% | 1016.4 hPa | 0 mm | - | 0 W/m² | - |
| 1777682341 | 6.67° C | 86% | 1016.4 hPa | 0 mm | - | 0 W/m² | - |
| 1777682038 | 6.67° C | 86% | 1016.3 hPa | 0 mm | - | 0 W/m² | - |
| 1777681734 | 6.67° C | 86% | 1015.7 hPa | 0 mm | - | 0 W/m² | - |
| 1777681431 | 7.22° C | 86% | 1015.9 hPa | 0 mm | - | 0 W/m² | - |
| 1777681129 | 7.22° C | 87% | 1015.6 hPa | 0 mm | - | 0 W/m² | - |
| 1777680826 | 6.67° C | 87% | 1015.6 hPa | 0 mm | - | 0 W/m² | - |
| 1777680524 | 7.22° C | 87% | 1015.2 hPa | 0 mm | - | 0 W/m² | - |
| 1777680222 | 7.22° C | 87% | 1015.2 hPa | 0 mm | - | 0 W/m² | - |
| 1777679918 | 7.22° C | 87% | 1014.9 hPa | 0 mm | - | 1 W/m² | - |
| 1777679613 | 7.22° C | 87% | 1014.9 hPa | 0 mm | - | 4 W/m² | - |
| 1777679309 | 7.22° C | 87% | 1015.2 hPa | 0 mm | - | 14 W/m² | - |
| 1777679006 | 7.22° C | 87% | 1014.9 hPa | 0 mm | - | 16 W/m² | - |
| 1777678705 | 7.22° C | 87% | 1015 hPa | 0 mm | - | 18 W/m² | - |
| 1777678401 | 7.78° C | 87% | 1014.8 hPa | 0 mm | - | 32 W/m² | - |
* Rain latest hour (hover to see other rain measurements)
** Current wind speed in m/s (hover to see current wind gust speed)